Main page
METAR-TAF:

METAR-TAF

Airports :

Presque_Isle_County_Airport

Rogers City, Michigan, United States

latitude: 45-24-25N, longitude: 083-48-46W, elevation: 204 m

Current weather observation

The report was made 29 minutes ago, at 18:55 UTC
Wind 6 kt from the South
Temperature 19°C
Humidity 37%
Pressure 1023 hPa
Visibility: 16.1 km
Clear sky

METAR: KPZQ 151855Z AUTO 18006KT 10SM CLR 19/04 A3021 RMK AO2 T01900041

Time: 15:24 (19:24 UTC)


TAF: missing

Weather observations and forecasts of more than 4000 airports (METAR and TAF reports).

The available stations are represented by yellow and red dots on the map.

Hover mouse over dot to see the name of the station.

Then click to see weather observations and forecasts.

To change the map : click on the green buttons with a black cross to zoom in, on the green button with a dash to zoom out, or on the green arrows for adjacent maps.


METAR-TAF: